054  
ASUS41 KALY 092310  
RWRALY  
 
NEW YORK STATE HOURLY WEATHER ROUNDUP  
NATIONAL WEATHER SERVICE ALBANY NY  
600 PM EST MON DEC 09 2019  
 
NOTE: "FAIR" INDICATES FEW OR NO CLOUDS BELOW 12,000 FEET WITH NO  
SIGNIFICANT WEATHER AND/OR NO S TO VISIBILITY
.  
 
NYZ032-033-038>043-046>054-057>066-NYZ062>081-082-084-100000-  
EAST  
 
 
CITY SKY/WX TMP DP RH WIND PRES REMARKS
 
ALBANY DRIZZLE 45 41 86 S18G28 29.72F  
GLENS FALLS LGT RAIN 35 34 96 CALM 29.69F FOG  
POUGHKEEPSIE LGT RAIN 38 37 97 CALM 29.79F FOG  
NEWBURGH LGT RAIN 43 43 100 W8 29.80F FOG  
MONTGOMERY LGT RAIN 34 33 96 CALM 29.78F FOG  
WHITE PLAINS RAIN 51 50 96 S6 29.84F VSB 1  
ISLIP RAIN 51 51 100 S9 29.87F FOG  
NEW YORK CITY HVY RAIN 53 50 89 S9 29.84F FOG  
CENTRAL PARK HVY RAIN 53 51 93 VRB3 29.86F FOG  

 
 
NYZ005>009-017-018-044>046-055-056-100000-  
CENTRAL  
 
 
CITY SKY/WX TMP DP RH WIND PRES REMARKS
 
FULTON LGT RAIN 44 38 79 S10G20 29.55F  
SYRACUSE LGT RAIN 47 40 76 S16G29 29.56F  
ROME LGT RAIN 42 41 96 SE10 29.63F  
ELMIRA LGT RAIN 44 39 82 W6 29.63F  
BINGHAMTON LGT RAIN 42 40 92 S10G23 29.63F  
MONTICELLO LGT RAIN 42 42 100 S6 29.75F  

 
 
NYZ026>034-041>043-087-100000-  
NORTH  
 
 
CITY SKY/WX TMP DP RH WIND PRES REMARKS
 
WATERTOWN LGT RAIN 46 42 86 S12G25 29.50F  
FORT DRUM NOT AVBL  
OGDENSBURG LGT RAIN 43 43 100 S9 29.48F  
MASSENA LGT RAIN 40 38 93 NE3 29.52F FOG  
SARANAC LAKE CLOUDY 42 38 85 SW10 29.53F  
PLATTSBURGH CLOUDY 43 40 89 S13 29.58F  

 
 
NYZ001>004-010>016-019>021-085-100000-  
WEST  
 
 
CITY SKY/WX TMP DP RH WIND PRES REMARKS
 
NIAGARA FALLS LGT RAIN 49 46 90 SW22 29.45S  
BUFFALO LGT RAIN 50 46 86 S20 29.47S  
DUNKIRK LGT RAIN 51 47 86 S14G21 29.49S  
JAMESTOWN LGT RAIN 48 47 96 S12 29.52F  
WELLSVILLE LGT RAIN 41 40 96 S13G22 29.58S  
ROCHESTER CLOUDY 45 39 79 SW10G21 29.50F  
PENN YAN LGT RAIN 43 38 82 S16G25 29.57F  

 
 
KEY  
WCI = WIND CHILL INDEX  
VSB = VISIBILITY  
HX = HEAT INDEX  

 
 
 
CLICK HERE TO GO TO PREVIOUS BULLETINS.

The Nexlab NY Page
The Nexlab VT Page
The Nexlab MA Page
The Nexlab CT Page Main Text Page